Kezdőlap
METAR-TAF:

METAR-TAF

Repülőterek :

Algona, Iowa, Amerikai Egyesült Államok

földrajzi szélesség: 43-05N, földrajzi hosszúság: 094-16W, magasság: 372 m

Jelenlegi meteorológiai megfigyelések

A jelentés 26 perccel ezelõtt készült, 07:55 UTC
Északkeleti szél 6 kt
Hőmérséklet -5°C
Páratartalom 100%
Légköri nyomás 1019 hPa
Látótávolság: 14.5 km
Szakadozott felhőzet 900 lábon
Borult 4100 lábon

METAR: KAXA 270755Z AUTO 04006KT 9SM BKN009 OVC041 M05/M05 A3010 RMK A01

Idő: 02:21 (08:21 UTC)


TAF: hiányzik

Meteorológiai megfigyelések és előrejelzések több, mint 4000 repülőtéren (METAR és TAF jelentéseket).

A térképen piros és sárga pontok jelzik az elérhető meteorológiai állomásokat.

Mozgassa az egeret a pont fölött, hogy megjelenjen az állomás neve.

Azután kattintson az időjárási megfigyelések és előrejelzések megtekintéséhez.

A térkép megváltoztatása: kattintson a fekete keresztel jelölt zöld gombra ráközelítéshez, a vonallal jelölt zöld gombra távolításhoz, vagy a zöld nyilakra a szomszédos térképek eléréséhez.


METAR-TAF: